Simultaneous Nadir Overpasses (SNOs) Predictions

Prediction of SNOs between METOP-B and TERRA Satellite Orbit:

Table of predicted SNOs for the next 14.0 days since TLE Epoch: 3/14/2020
Index Date (METOP-B) Time (METOP-B) Lat,Lon (METOP-B) SZA (METOP-B ) Date (TERRA) Time (TERRA) Lat,Lon (TERRA) SZA (TERRA ) Distance(km) Time Diff (sec)
1 03/15/2020 09:14:38 81.30, 88.68 85.72 03/15/2020 09:15:46 81.31, 88.55 85.73 2.21 68
2 03/15/2020 10:05:19 -81.30,-104.03 94.31 03/15/2020 10:05:13 -81.30,-103.87 94.29 2.72 6
3 03/18/2020 04:49:01 81.31, 155.15 84.64 03/18/2020 04:50:00 81.31, 155.03 84.66 2.11 59
4 03/18/2020 05:39:41 -81.31, -37.17 95.34 03/18/2020 05:39:27 -81.31, -37.36 95.37 3.25 14
5 03/21/2020 00:23:23 81.31,-138.38 83.56 03/21/2020 00:24:13 81.31,-138.52 83.57 2.23 50
6 03/21/2020 01:14:03 -81.31, 29.29 96.41 03/21/2020 01:13:40 -81.31, 29.12 96.44 2.86 23
7 03/23/2020 19:57:46 81.31, -71.93 82.49 03/23/2020 19:58:27 81.31, -72.08 82.49 2.57 41
8 03/23/2020 20:48:26 -81.31, 95.75 97.49 03/23/2020 20:47:54 -81.31, 95.59 97.52 2.74 32
9 03/26/2020 15:32:09 81.31, -5.48 81.42 03/26/2020 15:32:41 81.31, -5.67 81.41 3.15 32




NCC Satellite Simultaneous Nadir Overpasses (SNOs) Prediction Service
